Time,TemperatureF,DewpointF,PressureIn,WindDirection,WindDirectionDegrees,WindSpeedMPH,WindSpeedGustMPH,Humidity,HourlyPrecipIn,Conditions,Clouds,dailyrainin,SoftwareType,DateUTC
2013-02-13 00:01:00,69.0,69.0,29.98,SE,141,5.0,9.0,100,0.00,,,0.00,,2013-02-13 05:01:00,
2013-02-13 00:11:00,69.0,69.0,29.97,South,176,3.0,10.0,100,0.00,,,0.00,,2013-02-13 05:11:00,
2013-02-13 00:22:00,69.0,69.0,29.97,South,176,3.0,10.0,100,0.00,,,0.00,,2013-02-13 05:22:00,
2013-02-13 00:31:00,69.0,69.0,29.96,South,190,7.0,13.0,100,0.00,,,0.00,,2013-02-13 05:31:00,
2013-02-13 00:42:00,69.0,69.0,29.96,South,190,7.0,13.0,100,0.00,,,0.00,,2013-02-13 05:42:00,
2013-02-13 00:52:00,69.0,69.0,29.97,South,190,10.0,13.0,100,0.00,,,0.00,,2013-02-13 05:52:00,
2013-02-13 01:02:00,69.0,69.0,29.96,South,181,9.0,10.0,100,0.00,,,0.00,,2013-02-13 06:02:00,
2013-02-13 01:11:00,69.0,69.0,29.95,South,191,5.0,9.0,100,0.00,,,0.00,,2013-02-13 06:11:00,
2013-02-13 01:21:00,69.0,69.0,29.95,South,191,5.0,9.0,100,0.00,,,0.00,,2013-02-13 06:21:00,
2013-02-13 01:32:00,70.0,70.0,29.95,South,180,4.0,13.0,100,0.00,,,0.00,,2013-02-13 06:32:00,
2013-02-13 01:42:00,69.0,69.0,29.96,South,172,11.0,19.0,100,0.00,,,0.00,,2013-02-13 06:42:00,
2013-02-13 01:52:00,69.0,69.0,29.96,South,172,11.0,19.0,100,0.00,,,0.00,,2013-02-13 06:52:00,
2013-02-13 02:02:00,69.0,69.0,29.95,SSE,151,6.0,11.0,100,0.00,,,0.00,,2013-02-13 07:02:00,
2013-02-13 02:11:00,69.0,69.0,29.95,South,175,6.0,10.0,100,0.00,,,0.00,,2013-02-13 07:11:00,
2013-02-13 02:22:00,69.0,69.0,29.95,South,175,6.0,10.0,100,0.00,,,0.00,,2013-02-13 07:22:00,
2013-02-13 02:32:00,69.0,69.0,29.94,South,183,8.0,13.0,100,0.00,,,0.00,,2013-02-13 07:32:00,
2013-02-13 02:42:00,69.0,69.0,29.94,SSE,168,4.0,12.0,100,0.00,,,0.00,,2013-02-13 07:42:00,
2013-02-13 02:52:00,69.0,69.0,29.94,SSE,168,4.0,12.0,100,0.00,,,0.00,,2013-02-13 07:52:00,
2013-02-13 03:01:00,69.0,69.0,29.94,South,187,6.0,10.0,100,0.00,,,0.00,,2013-02-13 08:01:00,
2013-02-13 03:11:00,69.0,69.0,29.93,SSE,168,7.0,13.0,100,0.00,,,0.00,,2013-02-13 08:11:00,
2013-02-13 03:21:00,69.0,69.0,29.93,SSE,168,7.0,13.0,100,0.00,,,0.00,,2013-02-13 08:21:00,
2013-02-13 03:32:00,69.0,69.0,29.93,South,178,7.0,10.0,100,0.00,,,0.00,,2013-02-13 08:32:00,
2013-02-13 03:43:00,69.0,69.0,29.93,South,178,7.0,10.0,100,0.00,,,0.00,,2013-02-13 08:43:00,
2013-02-13 03:52:00,69.0,69.0,29.93,South,181,5.0,13.0,100,0.00,,,0.00,,2013-02-13 08:52:00,
2013-02-13 04:02:00,69.0,69.0,29.93,South,183,5.0,15.0,100,0.00,,,0.00,,2013-02-13 09:02:00,
2013-02-13 04:11:00,69.0,69.0,29.93,South,169,6.0,12.0,100,0.00,,,0.00,,2013-02-13 09:11:00,
2013-02-13 04:21:00,69.0,69.0,29.93,South,169,6.0,12.0,100,0.00,,,0.00,,2013-02-13 09:21:00,
2013-02-13 04:31:00,69.0,69.0,29.93,SSW,199,8.0,13.0,100,0.00,,,0.00,,2013-02-13 09:31:00,
2013-02-13 04:42:00,69.0,69.0,29.92,South,191,10.0,15.0,100,0.00,,,0.00,,2013-02-13 09:42:00,
2013-02-13 04:52:00,69.0,69.0,29.92,South,191,10.0,15.0,100,0.00,,,0.00,,2013-02-13 09:52:00,
2013-02-13 05:01:00,69.0,69.0,29.93,South,172,4.0,8.0,100,0.00,,,0.00,,2013-02-13 10:01:00,
2013-02-13 05:11:00,68.0,68.0,29.92,SSE,150,4.0,12.0,100,0.00,,,0.00,,2013-02-13 10:11:00,
2013-02-13 05:21:00,68.0,68.0,29.92,SSE,150,4.0,12.0,100,0.00,,,0.00,,2013-02-13 10:21:00,
2013-02-13 05:32:00,68.0,68.0,29.92,South,179,8.0,14.0,100,0.00,,,0.00,,2013-02-13 10:32:00,
2013-02-13 05:42:00,68.0,68.0,29.91,South,179,9.0,9.0,100,0.00,,,0.00,,2013-02-13 10:42:00,
2013-02-13 05:52:00,68.0,68.0,29.91,South,179,9.0,9.0,100,0.00,,,0.00,,2013-02-13 10:52:00,
2013-02-13 06:01:00,68.0,68.0,29.92,SSE,159,7.0,8.0,100,0.00,,,0.00,,2013-02-13 11:01:00,
2013-02-13 06:11:00,69.0,69.0,29.92,South,169,3.0,10.0,100,0.00,,,0.00,,2013-02-13 11:11:00,
2013-02-13 06:22:00,69.0,69.0,29.92,South,169,3.0,10.0,100,0.00,,,0.00,,2013-02-13 11:22:00,
2013-02-13 06:32:00,69.0,69.0,29.93,SSE,164,6.0,12.0,100,0.00,,,0.00,,2013-02-13 11:32:00,
2013-02-13 06:42:00,69.0,69.0,29.93,South,186,4.0,7.0,100,0.00,,,0.00,,2013-02-13 11:42:00,
2013-02-13 06:52:00,69.0,69.0,29.93,South,186,4.0,7.0,100,0.00,,,0.00,,2013-02-13 11:52:00,
2013-02-13 07:02:00,69.0,69.0,29.93,South,180,3.0,10.0,100,0.00,,,0.00,,2013-02-13 12:02:00,
2013-02-13 07:11:00,69.0,69.0,29.93,South,180,4.0,10.0,100,0.00,,,0.00,,2013-02-13 12:11:00,
2013-02-13 07:22:00,69.0,69.0,29.93,South,180,4.0,10.0,100,0.00,,,0.00,,2013-02-13 12:22:00,
2013-02-13 07:32:00,69.0,69.0,29.94,SE,138,0.0,6.0,100,0.00,,,0.00,,2013-02-13 12:32:00,
2013-02-13 07:42:00,69.0,69.0,29.94,SSE,162,3.0,7.0,100,0.01,,,0.01,,2013-02-13 12:42:00,
2013-02-13 07:52:00,69.0,69.0,29.94,SSE,162,3.0,7.0,100,0.01,,,0.01,,2013-02-13 12:52:00,
2013-02-13 08:02:00,69.0,69.0,29.95,SSW,199,6.0,13.0,100,0.01,,,0.01,,2013-02-13 13:02:00,
2013-02-13 08:11:00,69.0,69.0,29.95,South,188,4.0,9.0,100,0.01,,,0.01,,2013-02-13 13:11:00,
2013-02-13 08:21:00,69.0,69.0,29.95,South,188,4.0,9.0,100,0.01,,,0.01,,2013-02-13 13:21:00,
2013-02-13 08:32:00,69.0,69.0,29.95,SSW,197,3.0,11.0,100,0.01,,,0.01,,2013-02-13 13:32:00,
2013-02-13 08:42:00,69.0,69.0,29.96,South,174,10.0,10.0,100,0.00,,,0.01,,2013-02-13 13:42:00,
2013-02-13 08:52:00,69.0,69.0,29.96,South,174,10.0,10.0,100,0.00,,,0.01,,2013-02-13 13:52:00,
2013-02-13 09:01:00,70.0,70.0,29.96,SSE,164,3.0,10.0,100,0.00,,,0.01,,2013-02-13 14:01:00,
2013-02-13 09:11:00,70.0,70.0,29.96,SSE,152,4.0,11.0,100,0.00,,,0.01,,2013-02-13 14:11:00,
2013-02-13 09:21:00,70.0,70.0,29.96,SSE,152,4.0,11.0,100,0.00,,,0.01,,2013-02-13 14:21:00,
2013-02-13 09:32:00,70.0,70.0,29.96,SSE,167,4.0,14.0,100,0.00,,,0.01,,2013-02-13 14:32:00,
2013-02-13 09:42:00,72.0,72.0,29.96,South,185,5.0,10.0,100,0.00,,,0.01,,2013-02-13 14:42:00,
2013-02-13 09:52:00,72.0,72.0,29.96,South,185,5.0,10.0,100,0.00,,,0.01,,2013-02-13 14:52:00,
2013-02-13 10:01:00,72.0,72.0,29.96,SSE,149,4.0,10.0,100,0.00,,,0.01,,2013-02-13 15:01:00,
2013-02-13 10:11:00,73.0,73.0,29.96,South,175,11.0,14.0,100,0.00,,,0.01,,2013-02-13 15:11:00,
2013-02-13 10:21:00,73.0,73.0,29.96,South,175,11.0,14.0,100,0.00,,,0.01,,2013-02-13 15:21:00,
2013-02-13 10:32:00,73.0,73.0,29.96,SSE,155,7.0,8.0,100,0.00,,,0.01,,2013-02-13 15:32:00,
2013-02-13 10:42:00,73.0,73.0,29.96,SSE,155,7.0,8.0,100,0.00,,,0.01,,2013-02-13 15:42:00,
2013-02-13 10:52:00,72.0,72.0,29.96,SE,126,8.0,20.0,100,0.00,,,0.01,,2013-02-13 15:52:00,
2013-02-13 11:01:00,72.0,72.0,29.97,SSE,161,9.0,19.0,100,0.00,,,0.01,,2013-02-13 16:01:00,
2013-02-13 11:11:00,73.0,73.0,29.96,SSE,160,8.0,14.0,100,0.00,,,0.01,,2013-02-13 16:11:00,
2013-02-13 11:21:00,73.0,73.0,29.96,SSE,160,8.0,14.0,100,0.00,,,0.01,,2013-02-13 16:21:00,
2013-02-13 11:32:00,73.0,73.0,29.95,South,170,11.0,14.0,100,0.00,,,0.01,,2013-02-13 16:32:00,
2013-02-13 11:42:00,73.0,73.0,29.95,South,170,11.0,14.0,100,0.00,,,0.01,,2013-02-13 16:42:00,
2013-02-13 11:52:00,73.0,73.0,29.95,SSE,168,9.0,9.0,100,0.00,,,0.01,,2013-02-13 16:52:00,
2013-02-13 12:01:00,74.0,74.0,29.95,SE,139,6.0,11.0,100,0.00,,,0.01,,2013-02-13 17:01:00,
2013-02-13 12:11:00,74.0,74.0,29.94,SSE,162,11.0,15.0,100,0.00,,,0.01,,2013-02-13 17:11:00,
2013-02-13 12:21:00,74.0,74.0,29.94,SSE,162,11.0,15.0,100,0.00,,,0.01,,2013-02-13 17:21:00,
2013-02-13 12:32:00,74.0,74.0,29.95,SSE,167,7.0,17.0,100,0.00,,,0.01,,2013-02-13 17:32:00,
2013-02-13 12:42:00,74.0,74.0,29.95,SSE,167,7.0,17.0,100,0.00,,,0.01,,2013-02-13 17:42:00,
2013-02-13 12:52:00,75.0,75.0,29.92,South,179,8.0,20.0,100,0.00,,,0.01,,2013-02-13 17:52:00,
2013-02-13 13:02:00,74.0,74.0,29.93,South,173,10.0,17.0,100,0.00,,,0.01,,2013-02-13 18:02:00,
2013-02-13 13:11:00,76.0,76.0,29.91,South,178,11.0,11.0,100,0.00,,,0.01,,2013-02-13 18:11:00,
2013-02-13 13:23:00,76.0,76.0,29.91,South,178,11.0,11.0,100,0.00,,,0.01,,2013-02-13 18:23:00,
2013-02-13 13:32:00,75.0,75.0,29.91,SSE,168,5.0,21.0,100,0.00,,,0.01,,2013-02-13 18:32:00,
2013-02-13 13:42:00,75.0,75.0,29.91,SSE,168,5.0,21.0,100,0.00,,,0.01,,2013-02-13 18:42:00,
2013-02-13 13:52:00,75.0,75.0,29.92,South,178,14.0,19.0,100,0.00,,,0.01,,2013-02-13 18:52:00,
2013-02-13 14:01:00,74.0,74.0,29.91,South,172,8.0,16.0,100,0.00,,,0.01,,2013-02-13 19:01:00,
2013-02-13 14:11:00,73.0,73.0,29.89,South,191,8.0,13.0,100,0.00,,,0.01,,2013-02-13 19:11:00,
2013-02-13 14:21:00,73.0,73.0,29.89,South,191,8.0,13.0,100,0.00,,,0.01,,2013-02-13 19:21:00,
2013-02-13 14:32:00,73.0,73.0,29.90,SE,136,4.0,12.0,100,0.00,,,0.01,,2013-02-13 19:32:00,
2013-02-13 14:42:00,74.0,74.0,29.88,South,178,10.0,15.0,100,0.00,,,0.01,,2013-02-13 19:42:00,
2013-02-13 14:52:00,74.0,74.0,29.88,South,178,10.0,15.0,100,0.00,,,0.01,,2013-02-13 19:52:00,
2013-02-13 15:02:00,76.0,76.0,29.88,SSE,161,10.0,13.0,100,0.00,,,0.01,,2013-02-13 20:02:00,
2013-02-13 15:11:00,76.0,76.0,29.88,SSW,194,6.0,19.0,100,0.00,,,0.01,,2013-02-13 20:11:00,
2013-02-13 15:21:00,76.0,76.0,29.88,SSW,194,6.0,19.0,100,0.00,,,0.01,,2013-02-13 20:21:00,
2013-02-13 15:31:00,77.0,77.0,29.88,South,179,5.0,13.0,100,0.00,,,0.01,,2013-02-13 20:31:00,
2013-02-13 15:42:00,76.0,76.0,29.87,SSW,207,9.0,15.0,100,0.00,,,0.01,,2013-02-13 20:42:00,
2013-02-13 15:52:00,76.0,76.0,29.87,SSW,207,9.0,15.0,100,0.00,,,0.01,,2013-02-13 20:52:00,
2013-02-13 16:01:00,75.0,75.0,29.87,SSW,192,4.0,19.0,100,0.00,,,0.01,,2013-02-13 21:01:00,
2013-02-13 16:11:00,75.0,75.0,29.88,SSE,167,9.0,14.0,100,0.00,,,0.01,,2013-02-13 21:11:00,
2013-02-13 16:21:00,75.0,75.0,29.88,SSE,167,9.0,14.0,100,0.00,,,0.01,,2013-02-13 21:21:00,
2013-02-13 16:31:00,75.0,75.0,29.87,South,181,13.0,15.0,100,0.00,,,0.01,,2013-02-13 21:31:00,
2013-02-13 16:42:00,74.0,74.0,29.87,South,177,10.0,20.0,100,0.00,,,0.01,,2013-02-13 21:42:00,
2013-02-13 16:52:00,74.0,74.0,29.87,South,177,10.0,20.0,100,0.00,,,0.01,,2013-02-13 21:52:00,
2013-02-13 17:02:00,74.0,74.0,29.87,South,183,6.0,13.0,100,0.00,,,0.01,,2013-02-13 22:02:00,
2013-02-13 17:11:00,73.0,73.0,29.87,SSW,207,9.0,16.0,100,0.00,,,0.01,,2013-02-13 22:11:00,
2013-02-13 17:21:00,73.0,73.0,29.87,SSW,207,9.0,16.0,100,0.00,,,0.01,,2013-02-13 22:21:00,
2013-02-13 17:31:00,73.0,73.0,29.87,SE,144,6.0,10.0,100,0.00,,,0.01,,2013-02-13 22:31:00,
2013-02-13 17:42:00,73.0,73.0,29.87,SE,144,6.0,10.0,100,0.00,,,0.01,,2013-02-13 22:42:00,
2013-02-13 17:52:00,73.0,73.0,29.88,South,177,11.0,12.0,100,0.00,,,0.01,,2013-02-13 22:52:00,
2013-02-13 18:01:00,72.0,72.0,29.87,SW,215,6.0,12.0,100,0.00,,,0.01,,2013-02-13 23:01:00,
2013-02-13 18:11:00,72.0,72.0,29.87,SSW,194,3.0,10.0,100,0.00,,,0.01,,2013-02-13 23:11:00,
2013-02-13 18:21:00,72.0,72.0,29.87,SSW,194,3.0,10.0,100,0.00,,,0.01,,2013-02-13 23:21:00,
2013-02-13 18:32:00,72.0,72.0,29.88,West,265,2.0,6.0,100,0.00,,,0.01,,2013-02-13 23:32:00,
2013-02-13 18:42:00,72.0,72.0,29.88,West,265,2.0,6.0,100,0.00,,,0.01,,2013-02-13 23:42:00,
2013-02-13 18:52:00,71.0,71.0,29.89,WNW,290,4.0,8.0,100,0.00,,,0.01,,2013-02-13 23:52:00,
2013-02-13 19:02:00,67.0,67.0,29.91,NW,308,9.0,27.0,100,0.01,,,0.02,,2013-02-14 00:02:00,
2013-02-13 19:11:00,67.0,67.0,29.91,NW,308,9.0,27.0,100,0.01,,,0.02,,2013-02-14 00:11:00,
2013-02-13 19:21:00,65.0,65.0,29.92,WNW,286,5.0,12.0,100,0.01,,,0.02,,2013-02-14 00:21:00,
2013-02-13 19:32:00,63.0,63.0,29.94,WNW,286,3.0,14.0,100,0.03,,,0.04,,2013-02-14 00:32:00,
2013-02-13 19:42:00,63.0,63.0,29.94,WNW,286,3.0,14.0,100,0.03,,,0.04,,2013-02-14 00:42:00,
2013-02-13 19:52:00,63.0,63.0,29.97,NW,326,2.0,3.0,100,0.03,,,0.04,,2013-02-14 00:52:00,
2013-02-13 20:01:00,63.0,63.0,29.96,NW,316,0.0,4.0,100,0.03,,,0.05,,2013-02-14 01:01:00,
2013-02-13 20:11:00,61.0,61.0,29.96,NNW,336,8.0,14.0,100,0.02,,,0.05,,2013-02-14 01:11:00,
2013-02-13 20:21:00,61.0,61.0,29.96,NNW,336,8.0,14.0,100,0.02,,,0.05,,2013-02-14 01:21:00,
2013-02-13 20:32:00,60.0,60.0,29.96,North,0,3.0,11.0,100,0.02,,,0.06,,2013-02-14 01:32:00,
2013-02-13 20:41:00,60.0,60.0,29.96,North,0,3.0,11.0,100,0.02,,,0.06,,2013-02-14 01:41:00,
2013-02-13 20:52:00,60.0,60.0,29.96,North,0,2.0,6.0,100,0.02,,,0.06,,2013-02-14 01:52:00,
2013-02-13 21:01:00,60.0,60.0,29.96,North,8,0.0,0.0,100,0.02,,,0.07,,2013-02-14 02:01:00,
2013-02-13 21:11:00,62.0,62.0,29.96,North,8,0.0,0.0,100,0.02,,,0.07,,2013-02-14 02:11:00,
2013-02-13 21:21:00,62.0,62.0,29.96,North,8,0.0,0.0,100,0.02,,,0.07,,2013-02-14 02:21:00,
2013-02-13 21:31:00,62.0,62.0,29.96,North,8,0.0,0.0,100,0.02,,,0.08,,2013-02-14 02:31:00,
2013-02-13 21:41:00,62.0,62.0,29.96,North,8,0.0,0.0,100,0.02,,,0.08,,2013-02-14 02:41:00,
2013-02-13 21:52:00,62.0,62.0,29.96,North,8,0.0,0.0,100,0.02,,,0.08,,2013-02-14 02:52:00,
2013-02-13 22:02:00,62.0,62.0,29.97,North,8,0.0,0.0,100,0.01,,,0.08,,2013-02-14 03:02:00,
2013-02-13 22:11:00,62.0,62.0,29.99,North,8,0.0,0.0,100,0.01,,,0.08,,2013-02-14 03:11:00,
2013-02-13 22:22:00,62.0,62.0,29.99,North,8,0.0,0.0,100,0.01,,,0.08,,2013-02-14 03:22:00,
2013-02-13 22:32:00,62.0,62.0,29.99,West,276,0.0,0.0,100,0.01,,,0.09,,2013-02-14 03:32:00,
2013-02-13 22:42:00,61.0,61.0,29.98,NW,306,2.0,5.0,100,0.01,,,0.09,,2013-02-14 03:42:00,
2013-02-13 22:52:00,61.0,61.0,29.98,NW,306,2.0,5.0,100,0.01,,,0.09,,2013-02-14 03:52:00,
2013-02-13 23:01:00,61.0,61.0,29.98,NW,324,0.0,0.0,100,0.01,,,0.09,,2013-02-14 04:01:00,
2013-02-13 23:12:00,61.0,61.0,30.01,NW,322,0.0,0.0,100,0.02,,,0.10,,2013-02-14 04:12:00,
2013-02-13 23:21:00,61.0,61.0,30.01,NW,322,0.0,0.0,100,0.02,,,0.10,,2013-02-14 04:21:00,
2013-02-13 23:31:00,62.0,62.0,29.99,NW,322,0.0,0.0,100,0.01,,,0.10,,2013-02-14 04:31:00,
2013-02-13 23:41:00,62.0,62.0,29.99,NW,322,0.0,0.0,100,0.01,,,0.10,,2013-02-14 04:41:00,
2013-02-13 23:52:00,62.0,62.0,30.00,NW,322,0.0,0.0,100,0.01,,,0.10,,2013-02-14 04:52:00,